伽利略0212星导航星座 (GSAT0212 (GALILEO 16))

导读 | 星芒AI

GSAT0212,也称为GALILEO 16,是欧洲伽利略卫星导航系统的一部分。该卫星由空中客车防务与航天公司制造,于2021年12月发射,旨在提供高精度的全球定位服务。GALILEO 16是一颗中地球轨道卫星,运行在约23,222公里的轨道高度,与其他伽利略卫星协同工作,增强系统的可靠性和覆盖范围。该系统独立于美国的GPS,为全球用户提供民用和军用导航服务,广泛应用于交通、通信和应急响应等领域。

基本信息
目录编号:
41860
目录名称:
GALILEO 16 (26C)
国际标识:
2016-069B
轨道中心:
EARTH
卫星名称:
伽利略0212星
卫星全名:
伽利略0212星导航星座 (GSAT0212 (GALILEO 16))
卫星状态:
在轨 (已飞行3257 天)
发射日期:
2016-11-17 UTC
国别 :
(ESA)
星等 :
--
轨道信息
数据来源 国际轨道数据
星历时间: 2025-10-18T06:14:47+0800
6小时前
查看轨道信息
半长轴: 29600.297km
偏心率: 0.0002959
轨道倾角: 55.344°
近地点辐角 41.480°
升交点赤经 107.791°
平近点角 318.590°
近地点: 23213.403km
远地点: 23230.921km
周期: 844.703分钟
每日圈数: 1.704742
详细信息
平衡模式:
三轴稳定
覆盖范围:
全球
运营商:
欧盟空间计划局
运营商所在国:
法国大都会
使用方式:
暂无
卫星简介
伽利略定位系统(Galileo)是一个全球导航卫星系统,于2016年投入使用由欧盟通过ESA创建,由欧盟空间计划局(EUSPA)运营。该系统有两个地面操控站,并且在高纬度地区提供比其他系统更好的定位服务。该卫星仍在工作。
2D轨道图
3D轨道图
轨道高度分析图
轨道倾角分析图
轨道综合分析图
查看轨道综合分析图